Fort Dodge, IA

5:58 PM CST on December 15, 2019 (GMT -0600)
Fort Dodge Regional

Weather History for KFOD - October, 2019

Change the Weather History Date:

Sunday, October 20, 2019

  Actual Average Record
Temperature  
Mean Temperature 48 °F -  
Max Temperature 62 °F 59 °F 86 °F (2003)
Min Temperature 35 °F 35 °F 15 °F (1960)
Degree Days  
Heating Degree Days 16    
Moisture  
Dew Point 40 °F    
Average Humidity 75    
Maximum Humidity 97    
Minimum Humidity 46    
Precipitation  
Precipitation 0.00 in - - ()
Sea Level Pressure  
Sea Level Pressure 29.86 in    
Wind  
Wind Speed 4 mph (SE)    
Max Wind Speed 18 mph    
Max Gust Speed 23 mph    
Visibility 9 miles    
Events Rain    
Averages and records for this station are not official NWS values.
T = Trace of Precipitation, MM = Missing Value Source: NWS Daily Summary

Daily Weather History Graph

Daily Weather History Graph

Search for Another Location

Airport or City:

Astronomy

Oct. 20, 2019 Rise Set
Actual Time 7:35 AM CDT 6:26 PM CDT
Civil Twilight 7:06 AM CDT 6:55 PM CDT
Nautical Twilight 6:34 AM CDT 7:28 PM CDT
Astronomical Twilight 6:01 AM CDT 8:00 PM CDT
Moon 11:31 PM CDT (10/20) 2:09 PM CDT (10/20)
Length of Visible Light 11h 48m
Length of Day
10h 51m
Waning Gibbous, 59% of the Moon is Illuminated
Oct 20
Waning Gibbous
Oct 21
Last Quarter
Oct 27
New
Nov 4
First Quarter
Nov 12
Full

Hourly Weather History & Observations

Time (CDT) Temp. Windchill Dew Point Humidity Pressure Visibility Wind Dir Wind Speed Gust Speed Precip Events Conditions
12:04 AM 39.2 °F - 37.4 °F 93% 29.79 in 1.5 mi Calm Calm - N/A   Clear
12:06 AM 39.2 °F - 37.4 °F 93% 29.79 in 0.8 mi Calm Calm - N/A   Clear
12:18 AM 39.2 °F - 37.4 °F 93% 29.79 in 1.5 mi Calm Calm - N/A   Clear
12:22 AM 39.2 °F - 37.4 °F 93% 29.79 in 3.0 mi Calm Calm - N/A   Clear
12:56 AM 37.9 °F - 37.0 °F 97% 29.88 in 10.0 mi Calm Calm - N/A   Clear
1:56 AM 39.9 °F - 37.0 °F 89% 29.88 in 10.0 mi Calm Calm - N/A   Clear
2:56 AM 37.0 °F - 34.0 °F 89% 29.88 in 10.0 mi Calm Calm - N/A   Clear
3:56 AM 37.0 °F - 35.1 °F 93% 29.88 in 10.0 mi Calm Calm - N/A   Clear
4:56 AM 37.0 °F 32.4 °F 34.0 °F 89% 29.89 in 10.0 mi ENE 5.8 mph - N/A   Clear
5:56 AM 35.1 °F - 34.0 °F 96% 29.91 in 10.0 mi Calm Calm - N/A   Clear
6:56 AM 36.0 °F - 35.1 °F 97% 29.93 in 10.0 mi Calm Calm - N/A   Clear
7:56 AM 36.0 °F 33.3 °F 34.0 °F 93% 29.93 in 10.0 mi East 3.5 mph - N/A   Clear
8:56 AM 39.9 °F 35.8 °F 39.0 °F 97% 29.94 in 10.0 mi East 5.8 mph - N/A   Clear
9:56 AM 48.9 °F - 43.0 °F 80% 29.95 in 10.0 mi Calm Calm - N/A   Clear
10:56 AM 55.9 °F - 46.9 °F 72% 29.94 in 10.0 mi South 8.1 mph - N/A   Clear
11:56 AM 60.1 °F - 48.0 °F 64% 29.94 in 10.0 mi SSE 8.1 mph - N/A   Clear
12:56 PM 62.1 °F - 44.1 °F 52% 29.91 in 10.0 mi SSE 9.2 mph - N/A   Clear
1:56 PM 62.1 °F - 44.1 °F 52% 29.88 in 10.0 mi SSE 10.4 mph - N/A   Clear
2:56 PM 62.1 °F - 42.1 °F 48% 29.88 in 10.0 mi SSE 13.8 mph 20.7 mph N/A   Clear
3:56 PM 62.1 °F - 42.1 °F 48% 29.86 in 10.0 mi SE 12.7 mph 20.7 mph N/A   Clear
4:56 PM 61.0 °F - 39.9 °F 46% 29.84 in 10.0 mi SE 12.7 mph - N/A   Clear
5:56 PM 60.1 °F - 41.0 °F 49% 29.84 in 10.0 mi SE 9.2 mph 17.3 mph N/A   Clear
6:56 PM 59.0 °F - 42.1 °F 53% 29.83 in 10.0 mi ESE 10.4 mph - N/A   Mostly Cloudy
7:56 PM 57.9 °F - 37.9 °F 47% 29.82 in 10.0 mi ESE 13.8 mph 20.7 mph N/A   Overcast
8:56 PM 55.9 °F - 42.1 °F 60% 29.80 in 10.0 mi ESE 12.7 mph 23.0 mph 0.00 in Rain Light Rain
9:56 PM 54.0 °F - 43.0 °F 66% 29.75 in 10.0 mi ESE 18.4 mph 21.9 mph 0.00 in Rain Light Rain
10:56 PM 54.0 °F - 46.0 °F 75% 29.73 in 10.0 mi SE 12.7 mph 21.9 mph 0.00 in Rain Light Rain
11:56 PM 52.0 °F - 48.9 °F 89% 29.71 in 6.0 mi SE 13.8 mph - N/A Rain Rain